Location: Isola Pescaroli
(45.0500°N, 10.1667°E)
Time: 00:47:27
(UTC+00:00)

SL-4 R/B - Pass Details

Date: 23 June 2021
Orbit: 428 x 662 km, 51.6° (Epoch: 29 July)

Event Time Altitude Azimuth Distance (km) Brightness Sun altitude
Rises 23:12:52 0° 285° (WNW) 2,688 5.8 -21.5°
Reaches altitude 10° 23:15:23 10° 296° (WNW) 1,751 4.9 -21.5°
Maximum altitude 23:18:53 29° 358° (N) 923 3.8 -21.5°
Drops below altitude 10° 23:22:09 10° 61° (ENE) 1,636 4.8 -21.5°
Sets 23:24:26 0° 73° (ENE) 2,478 5.6 -21.5°
